TimeEDT,TemperatureF,Dew PointF,Humidity,Sea Level PressureIn,VisibilityMPH,Wind Direction,Wind SpeedMPH,Gust SpeedMPH,PrecipitationIn,Events,Conditions,WindDirDegrees,DateUTC
12:15 AM,57.2,51.8,82,30.12,10.0,Calm,Calm,-,N/A,,Scattered Clouds,0,2014-03-29 04:15:00
12:35 AM,55.4,51.8,88,30.12,10.0,South,3.5,-,N/A,,Mostly Cloudy,190,2014-03-29 04:35:00
12:55 AM,57.2,51.8,82,30.12,10.0,Calm,Calm,-,N/A,,Mostly Cloudy,0,2014-03-29 04:55:00
1:15 AM,51.8,50.0,94,30.12,10.0,Calm,Calm,-,N/A,,Clear,0,2014-03-29 05:15:00
1:35 AM,51.8,51.8,100,30.12,10.0,Calm,Calm,-,N/A,,Clear,0,2014-03-29 05:35:00
2:15 AM,51.8,51.8,100,30.12,10.0,Calm,Calm,-,N/A,,Clear,0,2014-03-29 06:15:00
2:35 AM,51.8,51.8,100,30.12,10.0,East,5.8,-,N/A,,Clear,90,2014-03-29 06:35:00
2:55 AM,46.4,46.4,100,30.12,1.2,NNE,3.5,-,N/A,,Clear,20,2014-03-29 06:55:00
3:15 AM,48.2,48.2,100,30.10,7.0,Calm,Calm,-,N/A,,Clear,0,2014-03-29 07:15:00
3:35 AM,46.4,46.4,100,30.10,5.0,North,4.6,-,N/A,,Clear,10,2014-03-29 07:35:00
3:55 AM,48.2,48.2,100,30.10,10.0,North,6.9,-,N/A,,Clear,10,2014-03-29 07:55:00
4:15 AM,51.8,51.8,100,30.10,10.0,NNE,4.6,-,N/A,,Clear,20,2014-03-29 08:15:00
4:35 AM,50.0,50.0,100,30.10,10.0,NNE,3.5,-,N/A,,Clear,30,2014-03-29 08:35:00
4:55 AM,50.0,50.0,100,30.10,10.0,Calm,Calm,-,N/A,,Clear,0,2014-03-29 08:55:00
5:15 AM,50.0,50.0,100,30.11,10.0,Calm,Calm,-,N/A,,Clear,0,2014-03-29 09:15:00
5:35 AM,50.0,50.0,100,30.11,10.0,NE,3.5,-,N/A,,Clear,40,2014-03-29 09:35:00
5:55 AM,48.2,48.2,100,30.11,10.0,Calm,Calm,-,N/A,,Clear,0,2014-03-29 09:55:00
6:15 AM,48.2,48.2,100,30.12,10.0,Calm,Calm,-,N/A,,Scattered Clouds,0,2014-03-29 10:15:00
6:35 AM,50.0,48.2,94,30.14,10.0,Calm,Calm,-,N/A,,Overcast,0,2014-03-29 10:35:00
6:55 AM,50.0,48.2,94,30.13,10.0,NE,3.5,-,N/A,,Overcast,50,2014-03-29 10:55:00
7:15 AM,48.2,46.4,93,30.13,10.0,NE,3.5,-,N/A,,Overcast,50,2014-03-29 11:15:00
7:35 AM,48.2,46.4,93,30.13,10.0,NE,4.6,-,N/A,,Overcast,50,2014-03-29 11:35:00
7:55 AM,48.2,46.4,93,30.12,10.0,NE,3.5,-,N/A,,Overcast,50,2014-03-29 11:55:00
8:15 AM,48.2,44.6,87,30.12,10.0,NE,8.1,-,N/A,,Overcast,40,2014-03-29 12:15:00
8:35 AM,48.2,44.6,87,30.12,10.0,ENE,4.6,-,N/A,,Mostly Cloudy,60,2014-03-29 12:35:00
8:55 AM,48.2,44.6,87,30.12,10.0,NE,6.9,-,N/A,,Overcast,40,2014-03-29 12:55:00
9:15 AM,48.2,44.6,87,30.12,10.0,NE,4.6,-,N/A,Rain,Light Rain,50,2014-03-29 13:15:00
9:35 AM,48.2,44.6,87,30.12,10.0,NE,4.6,-,N/A,,Overcast,50,2014-03-29 13:35:00
9:55 AM,46.4,44.6,93,30.12,9.0,ENE,5.8,-,N/A,Rain,Rain,60,2014-03-29 13:55:00
10:15 AM,46.4,46.4,100,30.11,4.0,ENE,5.8,-,0.01,Rain,Light Rain,60,2014-03-29 14:15:00
10:35 AM,46.4,46.4,100,30.11,9.0,ENE,5.8,-,0.01,Rain,Light Rain,60,2014-03-29 14:35:00
10:55 AM,46.4,46.4,100,30.10,1.5,ENE,4.6,-,0.04,,Light Drizzle,60,2014-03-29 14:55:00
11:15 AM,46.4,46.4,100,30.09,4.0,ENE,11.5,23.0,N/A,,Overcast,70,2014-03-29 15:15:00
11:35 AM,46.4,46.4,100,30.08,1.5,ENE,12.7,27.6,N/A,Rain,Light Rain,70,2014-03-29 15:35:00
11:55 AM,46.4,46.4,100,30.07,1.2,ENE,16.1,29.9,N/A,Rain,Light Rain,70,2014-03-29 15:55:00
12:15 PM,46.4,46.4,100,30.06,2.0,ENE,17.3,25.3,N/A,,Overcast,70,2014-03-29 16:15:00
12:35 PM,46.4,46.4,100,30.05,1.0,ENE,10.4,25.3,N/A,,Overcast,70,2014-03-29 16:35:00
12:55 PM,46.4,46.4,100,30.04,1.0,ENE,15.0,26.5,N/A,,Overcast,70,2014-03-29 16:55:00
1:15 PM,46.4,46.4,100,30.03,0.8,ENE,15.0,24.2,N/A,Rain,Light Rain,70,2014-03-29 17:15:00
1:35 PM,46.4,46.4,100,30.01,1.0,ENE,13.8,25.3,N/A,Rain,Light Rain,70,2014-03-29 17:35:00
1:55 PM,46.4,46.4,100,30.00,1.0,ENE,15.0,28.8,N/A,Rain,Light Rain,70,2014-03-29 17:55:00
2:15 PM,46.4,46.4,100,29.99,2.5,ENE,13.8,25.3,0.01,Rain,Light Rain,70,2014-03-29 18:15:00
2:35 PM,46.4,46.4,100,29.97,1.8,ENE,8.1,23.0,0.05,Rain,Rain,60,2014-03-29 18:35:00
2:55 PM,46.4,46.4,100,29.96,2.0,East,18.4,31.1,0.11,Rain,Rain,80,2014-03-29 18:55:00
3:15 PM,46.4,46.4,100,29.94,1.5,ENE,11.5,26.5,0.05,Rain,Heavy Rain,60,2014-03-29 19:15:00
3:35 PM,46.4,46.4,100,29.93,1.8,ENE,17.3,25.3,0.11,Rain,Rain,70,2014-03-29 19:35:00
3:55 PM,46.4,46.4,100,29.91,1.5,ENE,16.1,24.2,0.16,Rain,Rain,70,2014-03-29 19:55:00
4:15 PM,46.4,46.4,100,29.91,1.8,ENE,13.8,26.5,0.01,Rain,Rain,70,2014-03-29 20:15:00
4:35 PM,46.4,46.4,100,29.89,1.2,ENE,10.4,23.0,0.09,Rain,Light Rain,70,2014-03-29 20:35:00
4:55 PM,46.4,46.4,100,29.88,2.0,ENE,11.5,21.9,0.11,Rain,Rain,70,2014-03-29 20:55:00
5:15 PM,46.4,46.4,100,29.87,5.0,East,15.0,23.0,N/A,,Overcast,80,2014-03-29 21:15:00
5:35 PM,46.4,46.4,100,29.86,1.5,East,15.0,21.9,0.01,,Overcast,80,2014-03-29 21:35:00
5:55 PM,46.4,46.4,100,29.84,6.0,ENE,11.5,26.5,0.01,,Overcast,70,2014-03-29 21:55:00
6:15 PM,46.4,46.4,100,29.83,10.0,ENE,11.5,28.8,N/A,,Overcast,70,2014-03-29 22:15:00
6:35 PM,46.4,46.4,100,29.82,3.0,ENE,10.4,23.0,N/A,,Overcast,70,2014-03-29 22:35:00
6:55 PM,46.4,46.4,100,29.81,1.5,ENE,12.7,21.9,0.04,Rain,Rain,70,2014-03-29 22:55:00
7:15 PM,46.4,46.4,100,29.79,2.5,ENE,13.8,23.0,0.05,Rain,Heavy Rain,70,2014-03-29 23:15:00
7:35 PM,46.4,46.4,100,29.77,3.0,ENE,9.2,19.6,0.12,Rain,Rain,60,2014-03-29 23:35:00
7:55 PM,46.4,46.4,100,29.76,3.0,East,16.1,27.6,0.22,Rain,Heavy Rain,80,2014-03-29 23:55:00
8:15 PM,46.4,46.4,100,29.75,2.5,East,16.1,21.9,0.10,Rain,Rain,80,2014-03-30 00:15:00
8:35 PM,46.4,46.4,100,29.75,2.5,East,12.7,20.7,0.16,Rain,Light Rain,100,2014-03-30 00:35:00
8:55 PM,46.4,46.4,100,29.74,3.0,ENE,10.4,18.4,0.19,,Overcast,70,2014-03-30 00:55:00
9:15 PM,46.4,46.4,100,29.72,5.0,ENE,10.4,19.6,N/A,,Overcast,70,2014-03-30 01:15:00
9:35 PM,46.4,46.4,100,29.68,3.0,ENE,11.5,23.0,N/A,,Overcast,70,2014-03-30 01:35:00
9:55 PM,46.4,46.4,100,29.68,6.0,ENE,13.8,25.3,N/A,Rain,Light Rain,70,2014-03-30 01:55:00
10:15 PM,46.4,46.4,100,29.66,1.8,ENE,6.9,19.6,0.03,Rain,Rain,70,2014-03-30 02:15:00
10:35 PM,46.4,46.4,100,29.64,3.0,ENE,6.9,-,0.23,Rain,Heavy Rain,70,2014-03-30 02:35:00
10:55 PM,46.4,46.4,100,29.64,2.0,East,8.1,-,0.36,Rain,Rain,100,2014-03-30 02:55:00
11:15 PM,46.4,46.4,100,29.63,2.0,East,15.0,21.9,N/A,Rain,Light Rain,80,2014-03-30 03:15:00
11:35 PM,46.4,46.4,100,29.64,1.8,ENE,8.1,-,0.01,Rain,Light Rain,70,2014-03-30 03:35:00
11:55 PM,46.4,46.4,100,29.62,1.8,East,10.4,18.4,0.02,,Overcast,90,2014-03-30 03:55:00